Waarnemingen

Advertentie
Mijn weer
L9F, Nederland (6207): temperatuur & dauwpunt: 12.12.2017 12:00:00 - 18.12.2017 12:00:00 (CET)L9F, Nederland (6207): windsnelheid & windstoten: 12.12.2017 12:00:00 - 18.12.2017 12:00:00 (CET)L9F, Nederland (6207): windrichting: 12.12.2017 12:00:00 - 18.12.2017 12:00:00 (CET)L9F, Nederland (6207): luchtdruk: 12.12.2017 12:00:00 - 18.12.2017 12:00:00 (CET)L9F, Nederland (6207): zicht: 12.12.2017 12:00:00 - 18.12.2017 12:00:00 (CET)
Datum & Tijd tt [°C] td [°C] ff [km/u] ff [kn] fx [km/u] fx [kn] dd ppp [hPa] vv [km]
18.12.2017 12:00:00 - - - - - - - - -
18.12.2017 11:00:00 8,3 4,9 41 22 40 21 N 1023,7 10
18.12.2017 10:00:00 8,3 4,7 42 23 47 25 N 1022,6 10
18.12.2017 09:00:00 8,4 4,1 46 25 50 27 N 1021,4 10
18.12.2017 08:00:00 8,4 4,2 48 26 50 27 N 1020,1 10
18.12.2017 07:00:00 8,4 4,5 52 28 54 29 N 1018,6 10
18.12.2017 06:00:00 8,5 4,4 55 30 58 31 NNW 1017,6 10
18.12.2017 05:00:00 8,5 4,2 52 28 54 29 N 1016,3 10
18.12.2017 04:00:00 8,3 5,3 54 29 58 31 N 1015,6 10
18.12.2017 03:00:00 8,4 5,6 52 28 58 31 NNW 1014,8 10
18.12.2017 02:00:00 8,1 5,9 54 29 58 31 NNW 1013,5 9
18.12.2017 01:00:00 8,1 6,5 50 27 54 29 NNW 1012,8 9
18.12.2017 00:00:00 7,9 7,7 24 13 40 21 - 1012,5 6
17.12.2017 23:00:00 7,4 6,9 42 23 65 35 WZW 1012,7 2,9
17.12.2017 22:00:00 6,3 5,6 68 37 68 37 ZZW 1013,2 3,7
17.12.2017 21:00:00 6,1 4,7 63 34 68 37 ZZW 1013,8 6
17.12.2017 20:00:00 5,8 3,0 61 33 65 35 ZW 1015,1 10
17.12.2017 19:00:00 6,4 1,1 63 34 - - ZW 1015,7 10
17.12.2017 18:00:00 6,7 2,1 59 32 58 31 ZW 1017,1 10
17.12.2017 17:00:00 6,6 1,9 46 25 47 25 ZW 1017,9 10
17.12.2017 16:00:00 6,6 1,7 35 19 36 19 ZW 1018,9 10
17.12.2017 15:00:00 6,7 1,2 31 17 32 18 WZW 1019,9 10
17.12.2017 14:00:00 6,7 1,5 28 15 29 16 WZW 1020,4 10
17.12.2017 13:00:00 6,8 0,9 21 11 22 12 WZW 1020,5 10
17.12.2017 12:00:00 6,6 1,3 11 6 22 12 W 1020,9 10
17.12.2017 11:00:00 6,8 1,1 15 8 25 14 W 1021,3 10
17.12.2017 10:00:00 6,7 0,4 21 11 25 14 WNW 1021,0 10
17.12.2017 09:00:00 6,9 0,0 22 12 25 14 NW 1020,6 10
17.12.2017 08:00:00 6,5 0,4 18 10 32 18 NW 1020,0 10
17.12.2017 07:00:00 6,9 0,5 29 16 32 18 NW 1019,6 10
17.12.2017 06:00:00 6,9 1,3 26 14 32 18 NNW 1019,3 10
17.12.2017 05:00:00 6,7 1,6 34 18 36 19 NNW 1018,6 10
17.12.2017 04:00:00 5,7 0,7 34 18 47 25 NNW 1018,2 10
17.12.2017 03:00:00 6,3 1,1 35 19 36 19 NNW 1017,8 10
17.12.2017 02:00:00 6,1 1,5 37 20 40 21 NW 1017,1 10
17.12.2017 01:00:00 6,2 1,3 37 20 47 25 N 1016,6 10
17.12.2017 00:00:00 6,5 0,4 34 18 43 23 NNW 1015,9 10
16.12.2017 23:00:00 5,8 1,2 29 16 50 27 N 1015,2 10
16.12.2017 22:00:00 5,4 1,2 39 21 50 27 WNW 1014,5 10
16.12.2017 21:00:00 5,9 0,7 41 22 47 25 NW 1014,1 10
16.12.2017 20:00:00 4,4 0,6 44 24 47 25 NNW 1013,8 10
16.12.2017 19:00:00 6,2 1,0 46 25 50 27 WNW 1012,6 10
16.12.2017 18:00:00 5,5 1,8 44 24 50 27 WNW 1012,0 10
16.12.2017 17:00:00 4,8 1,2 63 34 68 37 NW 1011,6 10
16.12.2017 16:00:00 6,0 1,8 41 22 50 27 NW 1010,8 10
16.12.2017 15:00:00 5,4 1,2 44 24 58 31 WNW 1010,3 10
16.12.2017 14:00:00 5,7 0,8 44 24 58 31 NW 1009,7 10
16.12.2017 13:00:00 5,4 0,9 48 26 58 31 NW 1009,1 10
16.12.2017 12:00:00 5,8 1,5 39 21 50 27 NNW 1008,9 10
16.12.2017 11:00:00 6,3 1,2 48 26 47 25 NW 1008,6 10
16.12.2017 10:00:00 5,5 0,6 52 28 61 33 NNW 1007,8 10
16.12.2017 09:00:00 6,3 1,4 48 26 61 33 NW 1006,9 10
16.12.2017 08:00:00 6,3 1,2 29 16 54 29 NNW 1006,3 10
16.12.2017 07:00:00 6,5 0,9 42 23 54 29 WNW 1005,7 10
16.12.2017 06:00:00 5,6 1,1 29 16 58 31 WNW 1005,6 10
16.12.2017 05:00:00 5,5 1,1 50 27 47 25 NNW 1005,1 10
16.12.2017 04:00:00 5,8 0,9 52 28 58 31 NW 1004,6 10
16.12.2017 03:00:00 7,0 0,5 42 23 54 29 NW 1004,0 10
16.12.2017 02:00:00 7,2 0,5 42 23 43 23 NNW 1003,5 10
16.12.2017 01:00:00 7,3 0,8 37 20 47 25 NNW 1003,1 10
16.12.2017 00:00:00 6,9 1,8 28 15 32 18 N 1002,8 10
15.12.2017 23:00:00 6,4 1,0 46 25 54 29 N 1001,9 10
15.12.2017 22:00:00 7,4 0,6 35 19 40 21 N 1001,1 10
15.12.2017 21:00:00 6,6 3,4 28 15 36 19 NNW 1000,9 10
15.12.2017 20:00:00 6,9 2,5 22 12 25 14 NW 999,6 10
15.12.2017 19:00:00 6,7 2,7 8 4 18 10 - 999,0 10
15.12.2017 18:00:00 5,9 3,6 15 8 14 8 ZZW 998,3 10
15.12.2017 17:00:00 5,4 3,4 11 6 14 8 ZZW 997,7 10
15.12.2017 16:00:00 4,9 3,1 5 3 14 8 ZZW 997,0 10
15.12.2017 15:00:00 4,4 3,2 8 4 11 6 ZZW 996,3 9
15.12.2017 14:00:00 4,3 3,3 5 3 18 10 ZW 995,4 9
15.12.2017 13:00:00 3,9 3,3 16 9 25 14 ZZW 994,5 5
15.12.2017 12:00:00 3,7 3,0 24 13 25 14 Z 993,8 2,4
15.12.2017 11:00:00 4,4 3,2 22 12 25 14 Z 992,9 5
15.12.2017 10:00:00 5,0 3,7 22 12 29 16 Z 991,9 7
15.12.2017 09:00:00 5,2 4,0 29 16 32 18 ZZW 990,8 10
15.12.2017 08:00:00 5,2 3,8 31 17 32 18 Z 989,9 10
15.12.2017 07:00:00 5,0 3,3 35 19 36 19 Z 989,1 10
15.12.2017 06:00:00 5,6 3,3 34 18 36 19 Z 988,2 10
15.12.2017 05:00:00 6,3 2,7 28 15 32 18 ZZW 987,8 10
15.12.2017 04:00:00 6,2 1,7 28 15 32 18 WZW 987,2 10
15.12.2017 03:00:00 6,8 1,0 29 16 32 18 ZW 987,0 10
15.12.2017 02:00:00 6,8 1,0 35 19 36 19 ZW 986,5 10
15.12.2017 01:00:00 6,8 1,3 34 18 36 19 WZW 986,4 10
15.12.2017 00:00:00 6,7 1,5 35 19 36 19 ZW 986,2 10
14.12.2017 23:00:00 6,4 0,7 35 19 36 19 WZW 986,0 10
14.12.2017 22:00:00 6,5 1,5 37 20 40 21 WZW 985,9 10
14.12.2017 21:00:00 6,5 1,2 35 19 36 19 WZW 985,9 10
14.12.2017 20:00:00 6,4 1,2 35 19 36 19 WZW 986,0 10
14.12.2017 19:00:00 6,4 0,6 42 23 40 21 WZW 986,0 10
14.12.2017 18:00:00 6,3 1,3 41 22 43 23 WZW 985,9 10
14.12.2017 17:00:00 6,2 2,2 42 23 47 25 WZW 985,9 10
14.12.2017 16:00:00 5,8 2,1 42 23 43 23 WZW 985,9 10
14.12.2017 15:00:00 6,1 1,0 34 18 47 25 WZW 986,2 10
14.12.2017 14:00:00 5,6 1,3 46 25 47 25 WZW 986,3 10
14.12.2017 13:00:00 5,7 1,3 39 21 50 27 WZW 986,4 10
14.12.2017 12:00:00 5,7 1,7 42 23 43 23 WZW 986,3 10
14.12.2017 11:00:00 6,1 0,2 44 24 47 25 WZW 986,3 10
14.12.2017 10:00:00 5,3 1,1 44 24 50 27 W 986,0 10
14.12.2017 09:00:00 5,4 1,5 48 26 54 29 WZW 985,4 10
14.12.2017 08:00:00 5,9 1,6 41 22 50 27 WZW 984,6 10
14.12.2017 07:00:00 5,6 -0,1 48 26 61 33 W 984,6 10
14.12.2017 06:00:00 5,7 2,5 26 14 54 29 W 984,1 10
14.12.2017 05:00:00 5,8 2,1 13 7 47 25 - 983,4 10
14.12.2017 04:00:00 6,7 -0,1 39 21 36 19 W 983,2 10
14.12.2017 03:00:00 6,7 0,3 41 22 43 23 W 983,2 10
14.12.2017 02:00:00 6,8 1,4 44 24 54 29 W 982,6 10
14.12.2017 01:00:00 6,0 1,7 57 31 61 33 WNW 982,8 10
14.12.2017 00:00:00 7,2 0,8 52 28 68 37 - 982,3 10
13.12.2017 23:00:00 7,0 2,7 61 33 68 37 WNW 981,1 10
13.12.2017 22:00:00 5,9 2,7 46 25 65 35 - 981,3 4,9
13.12.2017 21:00:00 6,4 4,3 15 8 54 29 - 981,9 8
13.12.2017 20:00:00 6,7 5,2 63 34 72 39 ZZW 982,7 3,2
13.12.2017 19:00:00 7,4 6,1 54 29 58 31 ZZW 984,5 10
13.12.2017 18:00:00 8,1 5,4 52 28 54 29 ZW 986,4 10
13.12.2017 17:00:00 7,8 5,4 52 28 54 29 ZW 988,1 10
13.12.2017 16:00:00 7,8 5,3 50 27 50 27 ZW 989,6 10
13.12.2017 15:00:00 7,7 5,0 37 20 43 23 ZW 990,6 10
13.12.2017 14:00:00 7,2 4,8 35 19 36 19 WZW 991,7 10
13.12.2017 13:00:00 7,1 4,4 35 19 32 18 WZW 992,8 10
13.12.2017 12:00:00 7,4 4,7 29 16 29 16 WZW 993,7 10
13.12.2017 11:00:00 6,6 6,5 29 16 72 39 WZW 994,7 2,4
13.12.2017 10:00:00 6,6 5,8 72 39 76 41 ZZW 994,8 3,3
13.12.2017 09:00:00 6,5 5,4 78 42 79 43 ZZW 995,8 4,3
13.12.2017 08:00:00 4,9 3,7 67 36 76 41 Z 997,4 5
13.12.2017 07:00:00 6,2 3,8 78 42 83 45 ZZW 997,9 8
13.12.2017 06:00:00 6,0 4,3 65 35 76 41 ZZW 999,3 9
13.12.2017 05:00:00 5,1 3,2 68 37 72 39 Z 1000,6 10
13.12.2017 04:00:00 6,3 4,0 72 39 76 41 ZZW 1001,7 10
13.12.2017 03:00:00 6,4 3,8 74 40 76 41 ZZW 1003,0 10
13.12.2017 02:00:00 6,8 3,2 68 37 68 37 ZZW 1003,7 10
13.12.2017 01:00:00 6,9 1,0 65 35 68 37 ZW 1005,0 10
13.12.2017 00:00:00 6,5 0,7 61 33 61 33 ZW 1005,9 10
12.12.2017 23:00:00 6,5 0,2 61 33 61 33 ZW 1006,5 10
12.12.2017 22:00:00 6,7 1,1 42 23 58 31 ZW 1007,1 10
12.12.2017 21:00:00 6,6 1,2 48 26 47 25 ZW 1007,1 10
12.12.2017 20:00:00 6,8 1,1 39 21 40 21 WZW 1007,4 10
12.12.2017 19:00:00 6,9 1,4 31 17 32 18 WZW 1007,2 10
12.12.2017 18:00:00 6,6 1,6 35 19 36 19 WZW 1007,1 10
12.12.2017 17:00:00 6,4 1,3 21 11 36 19 WZW 1006,9 10
12.12.2017 16:00:00 6,3 1,7 22 12 36 19 W 1006,3 10
12.12.2017 15:00:00 5,9 0,4 24 13 29 16 W 1005,5 10
12.12.2017 14:00:00 5,9 1,2 24 13 29 16 W 1004,9 10
12.12.2017 13:00:00 6,6 -1,6 18 10 29 16 NNW 1004,2 10
12.12.2017 12:00:00 6,5 -2,4 34 18 40 21 NNW 1003,5 10

tt = temperatuur
td = dauwpunt
ff = windsnelheid
fx = windstoten
dd = windrichting
ppp = luchtdruk
vv = zicht

Weerstations in de omgeving